Regional Weather Roundup
Issued by NWS Charleston, SC

Current Version | Previous Version | Graphics & Text | Print | Product List | Glossary On
Versions: 1 2 3 4 5 6 7 8 9 10 11 12 13 14 15 16 17 18 19 20 21 22 23 24 25 26 27 28 29 30 31 32 33 34 35 36 37 38 39 40 41 42 43 44 45 46 47 48 49 50
013 ASUS42 KCHS 290028 RWRCHS REGIONAL WEATHER ROUNDUP NATIONAL WEATHER SERVICE CHARLESTON SC 800 PM EDT THU JUL 28 2016 NOTE: "FAIR" INDICATES FEW OR NO CLOUDS BELOW 12,000 FEET WITH NO SIGNIFICANT WEATHER AND/OR OBSTRUCTIONS TO VISIBILITY. NOT ALL STATIONS ARE QUALITY CONTROLLED. USE DATA WITH CAUTION... ESPECIALLY DEWPOINT OBSERVATIONS. SCZ027-030-031-034>040-042>050-290100- ...SOUTHEAST SOUTH CAROLINA... CITY SKY/WX TMP DP RH WIND PRES REMARKS N CHARLESTON CLEAR 88 76 67 S10 29.93S HX 99 6HR MIN TEMP: 88; 6HR MAX TEMP: 98; WATERFRONT PRK N/A 88 79 74 SW9 29.91F HX 103 MOUNT PLEASANT FAIR 88 77 70 S7G18 29.93S HX 100 JOHNS ISLAND FAIR 86 79 79 S8 29.94S HX 99 PINOPOLIS N/A 93 72 49 SW8 29.83S HX 100 MONCKS CORNER FAIR 84 73 70 SW8 29.92R HX 91 SUMMERVILLE NOT AVBL BEAUFORT MCAS PTCLDY 89 78 70 VRB7 29.93S HX 103 6HR MIN TEMP: 89; 6HR MAX TEMP: 100; BEAUFORT ARPT FAIR 86 79 79 S10G16 29.93S HX 99 HILTON HEAD IS CLEAR 88 79 74 S13G18 29.95S HX 102 WALTERBORO CLEAR 91 70 49 S5 29.93S HX 97 ALLENDALE FAIR 91 68 46 CALM 29.92R HX 95 ...SOUTHERN MIDLANDS AND PEE DEE... CITY SKY/WX TMP DP RH WIND PRES REMARKS GEORGETOWN FAIR 84 75 74 SW9 29.93S HX 92 KINGSTREE FAIR 88 68 51 S3 29.90R HX 91 ORANGEBURG CLEAR 92 66 42 SW8 29.91S HX 94 6HR MIN TEMP: 92; 6HR MAX TEMP: 98; BARNWELL NOT AVBL AIKEN FAIR 90 64 43 W13 29.97R HX 91 MANNING FAIR 90 70 51 SW5 29.91R HX 95 COLUMBIA PTCLDY 95 66 38 W9 29.89R HX 98 6HR MIN TEMP: 95; 6HR MAX TEMP: 101; SUMTER CLEAR 92 68 44 SW13 29.87R HX 96 6HR MIN TEMP: 92; 6HR MAX TEMP: 98; FLORENCE CLEAR 91 70 49 S7 29.88S HX 96 6HR MIN TEMP: 91; 6HR MAX TEMP: 97; MYRTLE BEACH CLEAR 90 72 55 SW17 29.91S HX 96 N MYRTLE BEACH CLEAR 86 78 77 SW20 29.90S HX 98 6HR MIN TEMP: 86; 6HR MAX TEMP: 97; $$ GAZ063-065-086>088-099>101-113>116-118-119-134>141-150-290100- ...SOUTHEAST GEORGIA... CITY SKY/WX TMP DP RH WIND PRES REMARKS SAVANNAH ARPT PTCLDY 91 75 59 S8 29.93S HX 101 6HR MIN TEMP: 91; 6HR MAX TEMP: 99; HUNTER AAF CLEAR 89 81 78 S6 29.92 HX 107 6HR MIN TEMP: 89; 6HR MAX TEMP: 99; FORT STEWART CLEAR 94 64 36 W6 29.91S HX 96 6HR MIN TEMP: 94; 6HR MAX TEMP: 99; STATESBORO CLEAR 90 71 52 CALM 29.94R HX 96 SYLVANIA NOT AVBL CLAXTON FAIR 92 69 46 SW3 29.95R HX 97 ...CSRA...CENTRAL AND FAR SOUTHEAST GEORGIA... CITY SKY/WX TMP DP RH WIND PRES REMARKS THOMSON NOT AVBL AUGUSTA-BUSH CLEAR 93 64 38 W13 29.91R HX 94 6HR MIN TEMP: 93; 6HR MAX TEMP: 100; AUGUSTA-DANIEL CLEAR 93 66 40 SW8 29.94R HX 96 SWAINSBORO FAIR 91 63 38 W5 29.96R HX 92 VIDALIA CLEAR 91 61 35 W7 29.96S HX 91 EASTMAN FAIR 91 47 21 W3 29.99R HAZLEHURST FAIR 92 68 44 CALM 29.96R HX 96 ALMA CLEAR 93 67 42 W5 29.96S HX 96 6HR MIN TEMP: 93; 6HR MAX TEMP: 99; WAYCROSS CLEAR 95 71 45 W5 29.97R HX 101 JESUP FAIR 91 73 55 W3 29.96R HX 100 BAXLEY FAIR 91 70 49 W3 29.97R HX 97 BRUNSWICK CLEAR 90 79 70 S13 29.97R HX 105 SAINT SIMONS CLEAR 88 79 74 S13G18 29.97R HX 103 6HR MIN TEMP: 88; 6HR MAX TEMP: 94; $$ SCZ027-028-034-036>038-045-046-048>050-GAZ119-141-290100- ...LAKE AND SUPPLEMENTAL COASTAL OBSERVATIONS... STATION/POSITION TIME TEMP WIND PRES WAVE SWELL AIR SEA DIR/SP/G HT/PER HT/PER/DIR (UTC) (F) (DEG/KT/KT) (MB) (FT/S) (FT/S/D) WINYAH BAY 2300 89 220/ 13 1012.0 LAKE MURRAY 2300 93 260/ 15/ 20 1011.5R ACE BASIN NERRS 2300 89 170/ 1 1014.0S FORT PULASKI 0000 87 88 N/A SAPELO ISLAND 0000 89 180/ 13 1014.0S $$ ANZ835-935-AMZ111-154-330-350-352-354-370-450-454-472-290100- ...C-MAN AND BUOY OBSERVATIONS... STATION/POSITION TIME TEMP WIND PRES WAVE SWELL AIR SEA DIR/SP/G HT/PER HT/PER/DIR (UTC) (F) (DEG/KT/KT) (MB) (FT/S) (FT/S/D) BUOY 41004 2350 86 86 200/ 17/ 21 1013.3 3/ 4 2/150/ 8 BUOY 41008 2250 87 87 160/ 16/ 19 1014.1 2/ 4 FOLLY BEACH CMAN 0000 86 200/ 15/ 18 1014.0S CAPERS NEARSHORE 0008 86 84 220/ 17/ 21 1013.6S FRIPP NEARSHORE 0008 87 87 190/ 17/ 21 1013.1S STATION/POSITION TIME TEMP WIND PRES WAVE SWELL AIR SEA DIR/SP/G HT/PER HT/PER/DIR (UTC) (F) (DEG/KT/KT) (MB) (FT/S) (FT/S/D) 5E ST. MARYS GA 0001 86 N/A 2/ 3 FRYING PAN BUOY 0000 86 85 220/ 17/ 21 1013.0R BUOY 41025 2350 87 85 220/ 16/ 19 1011.2F 3/ 4 2/130/ 8 CAPE LOOKOUT NC 0000 85 220/ 12/ 17 1011.5R BUOY 41002 2350 84 85 220/ 6/ 10 1015.1F 3/ 6 3/240/ 6 BUOY 41010 2320 86 88 270/ 2/ 4 1017.2F ST AUGUSTINE FL 0000 84 87 170/ 14/ 15 1016.8R $$

USA.gov is the U.S. government's official web portal to all federal, state and local government web resources and services.